• en Suisse
  • Liste des pays
  • À 7 jours
  • Température de l'eau
  • Carte satellitaire
  • Carte météo
  • Widgets météo
  • user-avatar
    Se connecter

    Météo par heure à Sari

    Ce jour, 16 Octobre, Mardi

    Heure Température Précipitation Vent Pression Humidité
    00:00 +20°C° 0.1 mm 1 m/s 764 mmHg 77%
    01:00 +20°C° 0.1 mm 1 m/s 764 mmHg 78%
    02:00 +20°C° 0.1 mm 1 m/s 764 mmHg 78%
    03:00 +19°C° 0.1 mm 1 m/s 764 mmHg 78%
    04:00 +19°C° 0 mm 1 m/s 764 mmHg 77%
    05:00 +19°C° 0.3 mm 1 m/s 765 mmHg 78%
    06:00 +19°C° 0.3 mm 1 m/s 765 mmHg 79%
    07:00 +19°C° 0.3 mm 1 m/s 765 mmHg 80%
    08:00 +19°C° 0.4 mm 1 m/s 766 mmHg 79%
    09:00 +18°C° 0.4 mm 2 m/s 766 mmHg 78%
    10:00 +19°C° 0.4 mm 2 m/s 766 mmHg 77%
    11:00 +20°C° 0.1 mm 2 m/s 766 mmHg 73%
    12:00 +21°C° 0.1 mm 2 m/s 766 mmHg 68%
    13:00 +23°C° 0.1 mm 2 m/s 766 mmHg 63%
    14:00 +23°C° 0 mm 2 m/s 765 mmHg 64%
    15:00 +22°C° 0 mm 3 m/s 765 mmHg 64%
    16:00 +22°C° 0 mm 3 m/s 765 mmHg 64%
    17:00 +21°C° 0 mm 3 m/s 765 mmHg 70%
    18:00 +19°C° 0 mm 3 m/s 765 mmHg 77%
    19:00 +18°C° 0 mm 2 m/s 765 mmHg 83%
    20:00 +18°C° 0 mm 2 m/s 765 mmHg 83%
    21:00 +17°C° 0 mm 2 m/s 766 mmHg 82%
    22:00 +17°C° 0 mm 2 m/s 766 mmHg 82%
    23:00 +17°C° 0 mm 2 m/s 766 mmHg 80%

    Demain, 17 Octobre, Mercredi

    Heure Température Précipitation Vent Pression Humidité
    00:00 +17°C° 0 mm 2 m/s 765 mmHg 79%
    01:00 +17°C° 0 mm 2 m/s 765 mmHg 77%
    02:00 +16°C° 0 mm 2 m/s 765 mmHg 76%
    03:00 +16°C° 0 mm 2 m/s 765 mmHg 75%
    04:00 +16°C° 0 mm 2 m/s 765 mmHg 74%
    05:00 +16°C° 0 mm 2 m/s 765 mmHg 73%
    06:00 +16°C° 0 mm 2 m/s 765 mmHg 73%
    07:00 +16°C° 0 mm 2 m/s 765 mmHg 72%
    08:00 +18°C° 0 mm 2 m/s 766 mmHg 65%
    09:00 +20°C° 0 mm 2 m/s 766 mmHg 59%
    10:00 +23°C° 0 mm 2 m/s 766 mmHg 52%
    11:00 +23°C° 0 mm 2 m/s 765 mmHg 51%
    12:00 +24°C° 0 mm 3 m/s 765 mmHg 50%
    13:00 +24°C° 0 mm 3 m/s 765 mmHg 49%
    14:00 +24°C° 0 mm 3 m/s 764 mmHg 51%
    15:00 +22°C° 0 mm 3 m/s 764 mmHg 53%
    16:00 +22°C° 0 mm 3 m/s 764 mmHg 55%
    17:00 +21°C° 0 mm 2 m/s 764 mmHg 60%
    18:00 +19°C° 0 mm 2 m/s 764 mmHg 66%
    19:00 +18°C° 0 mm 1 m/s 764 mmHg 71%
    20:00 +18°C° 0 mm 1 m/s 764 mmHg 71%
    21:00 +18°C° 0 mm 1 m/s 764 mmHg 72%
    22:00 +18°C° 0 mm 1 m/s 764 mmHg 72%
    23:00 +18°C° 0 mm 1 m/s 763 mmHg 71%

    Après-demain, 18 Octobre, Jeudi

    Heure Température Précipitation Vent Pression Humidité
    00:00 +18°C° 0 mm 1 m/s 763 mmHg 70%
    01:00 +18°C° 0 mm 1 m/s 763 mmHg 69%
    02:00 +16°C° 0 mm 1 m/s 763 mmHg 68%
    03:00 +16°C° 0 mm 1 m/s 763 mmHg 67%
    04:00 +16°C° 0 mm 1 m/s 762 mmHg 66%
    05:00 +16°C° 0 mm 1 m/s 762 mmHg 65%
    06:00 +16°C° 0 mm 1 m/s 762 mmHg 64%
    07:00 +16°C° 0 mm 1 m/s 762 mmHg 63%
    08:00 +19°C° 0 mm 1 m/s 763 mmHg 57%
    09:00 +21°C° 0 mm 1 m/s 763 mmHg 50%
    10:00 +24°C° 0 mm 1 m/s 763 mmHg 44%
    11:00 +24°C° 0 mm 1 m/s 763 mmHg 43%
    12:00 +25°C° 0 mm 2 m/s 762 mmHg 42%
    13:00 +26°C° 0 mm 2 m/s 762 mmHg 42%
    14:00 +25°C° 0 mm 2 m/s 762 mmHg 44%
    15:00 +25°C° 0 mm 2 m/s 762 mmHg 46%
    16:00 +25°C° 0 mm 3 m/s 761 mmHg 48%
    17:00 +23°C° 0 mm 2 m/s 762 mmHg 54%
    18:00 +20°C° 0 mm 2 m/s 762 mmHg 60%
    19:00 +19°C° 0 mm 2 m/s 762 mmHg 67%
    20:00 +18°C° 0 mm 2 m/s 762 mmHg 65%
    21:00 +19°C° 0 mm 1 m/s 762 mmHg 64%
    22:00 +19°C° 0 mm 1 m/s 762 mmHg 62%
    23:00 +19°C° 0 mm 1 m/s 762 mmHg 59%

    19 Octobre, Vendredi

    Heure Température Précipitation Vent Pression Humidité
    00:00 +18°C° 0 mm 1 m/s 762 mmHg 56%
    01:00 +18°C° 0 mm 1 m/s 762 mmHg 53%
    02:00 +18°C° 0 mm 1 m/s 762 mmHg 51%
    03:00 +18°C° 0 mm 1 m/s 762 mmHg 49%
    04:00 +18°C° 0 mm 1 m/s 762 mmHg 47%
    05:00 +18°C° 0 mm 1 m/s 762 mmHg 46%
    06:00 +16°C° 0 mm 1 m/s 763 mmHg 45%
    07:00 +16°C° 0 mm 1 m/s 763 mmHg 43%
    08:00 +20°C° 0 mm 1 m/s 763 mmHg 39%
    09:00 +22°C° 0 mm 1 m/s 763 mmHg 34%
    10:00 +25°C° 0 mm 1 m/s 763 mmHg 29%
    11:00 +25°C° 0 mm 1 m/s 763 mmHg 30%
    12:00 +26°C° 0 mm 2 m/s 763 mmHg 30%
    13:00 +27°C° 0 mm 3 m/s 762 mmHg 30%
    14:00 +26°C° 0 mm 3 m/s 762 mmHg 33%
    15:00 +26°C° 0 mm 3 m/s 762 mmHg 37%
    16:00 +26°C° 0 mm 3 m/s 762 mmHg 40%
    17:00 +24°C° 0 mm 2 m/s 762 mmHg 46%
    18:00 +21°C° 0 mm 2 m/s 762 mmHg 52%
    19:00 +19°C° 0 mm 2 m/s 762 mmHg 58%
    20:00 +19°C° 0 mm 2 m/s 763 mmHg 56%
    21:00 +19°C° 0 mm 2 m/s 763 mmHg 53%
    22:00 +18°C° 0 mm 2 m/s 763 mmHg 50%
    23:00 +18°C° 0 mm 2 m/s 762 mmHg 47%

    20 Octobre, Samedi

    Heure Température Précipitation Vent Pression Humidité
    00:00 +18°C° 0 mm 2 m/s 762 mmHg 44%
    01:00 +18°C° 0 mm 2 m/s 762 mmHg 42%
    02:00 +18°C° 0 mm 2 m/s 762 mmHg 41%
    03:00 +18°C° 0 mm 2 m/s 762 mmHg 39%
    04:00 +18°C° 0 mm 2 m/s 762 mmHg 38%
    05:00 +18°C° 0 mm 2 m/s 762 mmHg 38%
    06:00 +18°C° 0 mm 2 m/s 762 mmHg 37%
    07:00 +18°C° 0 mm 2 m/s 762 mmHg 37%
    08:00 +21°C° 0 mm 1 m/s 762 mmHg 32%
    09:00 +24°C° 0 mm 1 m/s 762 mmHg 27%
    10:00 +27°C° 0 mm 1 m/s 762 mmHg 23%
    11:00 +28°C° 0 mm 2 m/s 762 mmHg 23%
    12:00 +29°C° 0 mm 2 m/s 761 mmHg 23%
    13:00 +29°C° 0 mm 3 m/s 761 mmHg 23%
    14:00 +29°C° 0 mm 3 m/s 760 mmHg 25%
    15:00 +29°C° 0 mm 3 m/s 760 mmHg 28%
    16:00 +28°C° 0 mm 3 m/s 760 mmHg 31%
    17:00 +26°C° 0 mm 2 m/s 760 mmHg 33%
    18:00 +24°C° 0 mm 2 m/s 760 mmHg 36%
    19:00 +23°C° 0 mm 2 m/s 760 mmHg 39%
    20:00 +23°C° 0 mm 2 m/s 760 mmHg 38%
    21:00 +23°C° 0 mm 2 m/s 760 mmHg 36%
    22:00 +21°C° 0 mm 2 m/s 760 mmHg 35%
    23:00 +21°C° 0 mm 2 m/s 759 mmHg 35%

    21 Octobre, Dimanche

    Heure Température Précipitation Vent Pression Humidité
    00:00 +21°C° 0 mm 2 m/s 759 mmHg 35%
    01:00 +21°C° 0 mm 2 m/s 759 mmHg 36%
    02:00 +21°C° 0 mm 2 m/s 759 mmHg 37%
    03:00 +21°C° 0 mm 2 m/s 759 mmHg 37%
    04:00 +21°C° 0 mm 2 m/s 758 mmHg 38%
    05:00 +21°C° 0 mm 2 m/s 759 mmHg 39%
    06:00 +21°C° 0 mm 2 m/s 759 mmHg 39%
    07:00 +23°C° 0 mm 2 m/s 759 mmHg 40%
    08:00 +25°C° 0 mm 1 m/s 759 mmHg 36%
    09:00 +28°C° 0 mm 1 m/s 759 mmHg 32%
    10:00 +31°C° 0 mm 1 m/s 759 mmHg 28%
    11:00 +32°C° 0 mm 1 m/s 758 mmHg 27%
    12:00 +32°C° 0 mm 2 m/s 758 mmHg 26%
    13:00 +34°C° 0 mm 2 m/s 758 mmHg 25%
    14:00 +34°C° 0 mm 2 m/s 757 mmHg 27%
    15:00 +32°C° 0 mm 2 m/s 757 mmHg 29%
    16:00 +31°C° 0 mm 2 m/s 757 mmHg 31%
    17:00 +30°C° 0 mm 2 m/s 757 mmHg 34%
    18:00 +28°C° 0 mm 1 m/s 757 mmHg 36%
    19:00 +26°C° 0 mm 1 m/s 757 mmHg 38%
    20:00 +26°C° 0 mm 1 m/s 758 mmHg 38%
    21:00 +26°C° 0 mm 2 m/s 758 mmHg 37%
    22:00 +26°C° 0 mm 2 m/s 758 mmHg 37%
    23:00 +26°C° 0 mm 2 m/s 757 mmHg 36%
    Voir plus